QPF
0.03 0.04 0.04 0.05 0.06 0.05 0.05 0.04 0.03 0.03 0.02 0.02 0.02 0.01 0.02 0.02 0.02 0.02 0.01 0.02 0.03 0.03 0.05 0.06 0.06 0.05 0.05 0.04 0.04 0.05 0.06 0.06 0.08 0.10 0.13 0.14 0.17 0.19
0.03 0.02 0.04 0.06 0.08 0.09 0.09 0.09 0.08 0.06 0.04 0.03 0.03 0.01 0.02 0.01 0.02 0.02 0.02 0.03 0.03 0.04 0.04 0.05 0.05 0.04 0.04 0.04 0.02 0.03 0.03 0.03 0.03 0.04 0.05 0.07 0.09 0.12
0.04 0.03 0.03 0.03 0.04 0.08 0.11 0.11 0.09 0.09 0.07 0.05 0.04 0.03 0.02 0.02 0.02 0.02 0.03 0.02 0.02 0.04 0.05 0.06 0.04 0.03 0.03 0.03 0.02 0.02 0.03 0.03 0.03 0.03 0.03 0.04 0.05 0.07
0.03 0.03 0.02 0.01 0.01 0.02 0.04 0.05 0.06 0.06 0.05 0.03 0.03 0.02 0.02 0.02 0.03 0.03 0.02 0.02 0.03 0.04 0.06 0.06 0.05 0.03 0.03 0.03 0.03 0.03 0.03 0.03 0.04 0.04 0.03 0.04 0.04 0.05
0.02 0.02 0.01 0.01 0.01 0.01 0.01 0.01 0.02 0.02 0.02 0.02 0.02 0.02 0.02 0.03 0.04 0.03 0.02 0.02 0.03 0.04 0.05 0.06 0.05 0.04 0.03 0.03 0.03 0.02 0.02 0.02 0.02 0.02 0.02 0.03 0.03 0.04
0.01 0.02 0.02 0.02 0.02 0.01 0.02 0.02 0.03 0.03 0.03 0.02 0.01 0.02 0.02 0.03 0.04 0.05 0.04 0.03 0.03 0.04 0.05 0.06 0.07 0.06 0.04 0.04 0.03 0.02 0.02 0.02 0.02 0.02 0.02 0.03 0.03 0.04
0.01 0.01 0.01 0.02 0.02 0.02 0.03 0.04 0.05 0.03 0.02 0.02 0.02 0.03 0.03 0.03 0.03 0.04 0.04 0.03 0.03 0.03 0.04 0.05 0.06 0.06 0.05 0.04 0.03 0.03 0.02 0.02 0.02 0.02 0.02 0.02 0.03 0.03
0.01 0.01 0.01 0.01 0.01 0.01 0.03 0.04 0.06 0.05 0.03 0.02 0.02 0.02 0.02 0.03 0.03 0.04 0.03 0.03 0.03 0.03 0.04 0.05 0.05 0.04 0.04 0.04 0.04 0.03 0.02 0.02 0.02 0.02 0.02 0.02 0.03 0.03
0.01 0.01 0.00 0.00 0.00 0.01 0.01 0.02 0.03 0.05 0.05 0.04 0.03 0.02 0.02 0.03 0.04 0.04 0.03 0.02 0.02 0.04 0.05 0.05 0.05 0.04 0.04 0.04 0.04 0.03 0.02 0.02 0.02 0.02 0.01 0.02 0.02 0.02
0.01 0.01 0.01 0.01 0.01 0.01 0.02 0.01 0.01 0.02 0.03 0.04 0.04 0.03 0.03 0.04 0.04 0.05 0.03 0.02 0.02 0.02 0.03 0.04 0.05 0.05 0.06 0.05 0.04 0.03 0.02 0.01 0.01 0.01 0.02 0.01 0.01 0.01
0.01 0.01 0.01 0.01 0.02 0.02 0.01 0.01 0.01 0.01 0.02 0.03 0.02 0.02 0.03 0.04 0.05 0.06 0.05 0.03 0.02 0.03 0.02 0.02 0.05 0.07 0.04 0.04 0.05 0.05 0.04 0.03 0.03 0.02 0.03 0.03 0.02 0.02
0.01 0.01 0.01 0.01 0.01 0.02 0.02 0.01 0.00 0.01 0.01 0.01 0.01 0.01 0.02 0.03 0.05 0.04 0.03 0.02 0.01 0.02 0.02 0.02 0.04 0.06 0.04 0.03 0.04 0.04 0.02 0.03 0.04 0.03 0.04 0.04 0.03 0.03
0.01 0.01 0.01 0.01 0.01 0.01 0.01 0.01 0.01 0.01 0.01 0.01 0.01 0.01 0.02 0.04 0.04 0.03 0.02 0.01 0.01 0.01 0.02 0.02 0.03 0.04 0.05 0.05 0.05 0.04 0.02 0.01 0.02 0.02 0.03 0.03 0.02 0.02
0.01 0.01 0.01 0.01 0.01 0.01 0.01 0.01 0.01 0.01 0.01 0.01 0.01 0.01 0.02 0.04 0.05 0.04 0.03 0.02 0.02 0.01 0.02 0.03 0.03 0.03 0.04 0.04 0.04 0.04 0.03 0.02 0.01 0.01 0.02 0.02 0.02 0.02
0.01 0.01 0.01 0.01 0.00 0.00 0.00 0.00 0.00 0.01 0.01 0.01 0.02 0.02 0.02 0.04 0.06 0.05 0.04 0.04 0.05 0.04 0.03 0.04 0.04 0.04 0.04 0.04 0.04 0.03 0.02 0.02 0.03 0.02 0.02 0.02 0.02 0.03
0.01 0.00 0.01 0.01 0.00 0.00 0.00 0.00 0.01 0.01 0.01 0.01 0.02 0.03 0.03 0.04 0.05 0.04 0.05 0.06 0.06 0.05 0.05 0.03 0.04 0.05 0.04 0.03 0.04 0.04 0.03 0.03 0.03 0.03 0.03 0.03 0.02 0.02
0.01 0.00 0.01 0.01 0.01 0.00 0.00 0.00 0.02 0.03 0.01 0.01 0.02 0.02 0.03 0.03 0.04 0.04 0.04 0.05 0.05 0.03 0.04 0.04 0.03 0.04 0.04 0.04 0.03 0.03 0.03 0.02 0.02 0.03 0.03 0.04 0.04 0.03
0.01 0.00 0.01 0.01 0.01 0.01 0.01 0.01 0.05 0.04 0.01 0.01 0.02 0.02 0.02 0.02 0.03 0.04 0.04 0.04 0.04 0.03 0.03 0.03 0.04 0.04 0.03 0.03 0.03 0.03 0.03 0.02 0.03 0.03 0.04 0.04 0.04 0.04
0.01 0.01 0.01 0.01 0.01 0.01 0.01 0.02 0.05 0.03 0.01 0.02 0.02 0.02 0.02 0.03 0.03 0.03 0.03 0.04 0.04 0.04 0.04 0.04 0.05 0.05 0.03 0.02 0.01 0.03 0.03 0.03 0.03 0.03 0.03 0.03 0.03 0.03
0.01 0.01 0.01 0.02 0.02 0.02 0.02 0.03 0.05 0.04 0.03 0.04 0.03 0.03 0.03 0.03 0.03 0.03 0.03 0.03 0.04 0.04 0.05 0.06 0.04 0.03 0.03 0.03 0.03 0.04 0.05 0.05 0.04 0.03 0.03 0.03 0.04 0.04
0.01 0.01 0.01 0.01 0.02 0.03 0.03 0.03 0.04 0.04 0.03 0.03 0.03 0.03 0.02 0.03 0.03 0.03 0.04 0.04 0.05 0.04 0.04 0.04 0.03 0.03 0.04 0.05 0.04 0.03 0.03 0.05 0.05 0.04 0.05 0.05 0.05 0.04
0.02 0.02 0.02 0.02 0.02 0.02 0.03 0.04 0.05 0.04 0.03 0.04 0.04 0.03 0.03 0.02 0.02 0.03 0.04 0.04 0.04 0.04 0.03 0.04 0.04 0.04 0.04 0.04 0.04 0.03 0.04 0.05 0.05 0.05 0.04 0.05 0.04 0.03
0.02 0.02 0.02 0.03 0.03 0.03 0.03 0.05 0.07 0.05 0.04 0.05 0.06 0.05 0.04 0.04 0.04 0.04 0.05 0.05 0.05 0.05 0.05 0.05 0.05 0.05 0.05 0.05 0.06 0.06 0.06 0.06 0.06 0.05 0.04 0.03 0.03 0.03
MSLP
1019.71 1019.71 1019.72 1019.71 1019.65 1019.52 1019.29 1018.95 1018.50 1017.95 1017.35 1016.70 1016.06 1015.43 1014.83 1014.29 1013.79 1013.34 1012.93 1012.56 1012.22 1011.91 1011.63 1011.37 1011.13 1010.92 1010.71 1010.52 1010.33 1010.16 1010.00 1009.86 1009.76 1009.68 1009.65 1009.66 1009.70 1009.77
1019.17 1019.10 1019.06 1019.02 1018.95 1018.83 1018.64 1018.36 1017.99 1017.54 1017.03 1016.46 1015.88 1015.28 1014.69 1014.12 1013.56 1013.04 1012.54 1012.08 1011.66 1011.28 1010.94 1010.64 1010.38 1010.14 1009.92 1009.71 1009.51 1009.32 1009.13 1008.96 1008.81 1008.70 1008.63 1008.59 1008.60 1008.64
1018.64 1018.52 1018.43 1018.35 1018.27 1018.16 1018.00 1017.78 1017.50 1017.14 1016.73 1016.26 1015.75 1015.21 1014.64 1014.05 1013.46 1012.87 1012.29 1011.74 1011.23 1010.77 1010.36 1010.00 1009.69 1009.41 1009.16 1008.93 1008.70 1008.47 1008.25 1008.04 1007.86 1007.70 1007.59 1007.51 1007.48 1007.48
1018.20 1018.03 1017.90 1017.80 1017.70 1017.59 1017.46 1017.29 1017.08 1016.81 1016.50 1016.12 1015.70 1015.22 1014.68 1014.11 1013.49 1012.86 1012.22 1011.59 1010.99 1010.44 1009.95 1009.52 1009.13 1008.80 1008.49 1008.20 1007.92 1007.65 1007.39 1007.13 1006.91 1006.71 1006.56 1006.44 1006.37 1006.33
1017.83 1017.65 1017.50 1017.37 1017.26 1017.16 1017.05 1016.92 1016.76 1016.57 1016.34 1016.05 1015.70 1015.29 1014.80 1014.25 1013.64 1012.99 1012.30 1011.62 1010.95 1010.32 1009.74 1009.23 1008.76 1008.34 1007.95 1007.59 1007.24 1006.90 1006.58 1006.27 1005.99 1005.76 1005.56 1005.41 1005.30 1005.23
1017.54 1017.35 1017.20 1017.06 1016.95 1016.84 1016.74 1016.64 1016.52 1016.38 1016.21 1016.00 1015.72 1015.37 1014.94 1014.43 1013.84 1013.19 1012.50 1011.78 1011.06 1010.37 1009.72 1009.12 1008.56 1008.05 1007.56 1007.11 1006.66 1006.24 1005.84 1005.47 1005.14 1004.86 1004.62 1004.44 1004.30 1004.19
1017.26 1017.09 1016.94 1016.81 1016.70 1016.60 1016.50 1016.41 1016.31 1016.21 1016.08 1015.91 1015.69 1015.40 1015.03 1014.57 1014.02 1013.40 1012.71 1011.99 1011.26 1010.53 1009.82 1009.14 1008.50 1007.88 1007.30 1006.73 1006.19 1005.68 1005.19 1004.75 1004.36 1004.03 1003.76 1003.54 1003.37 1003.23
1016.97 1016.82 1016.69 1016.57 1016.46 1016.35 1016.26 1016.16 1016.07 1015.98 1015.87 1015.73 1015.55 1015.30 1014.98 1014.57 1014.08 1013.50 1012.85 1012.15 1011.42 1010.68 1009.94 1009.20 1008.49 1007.79 1007.10 1006.44 1005.79 1005.19 1004.62 1004.11 1003.66 1003.28 1002.97 1002.71 1002.51 1002.34
1016.63 1016.51 1016.39 1016.29 1016.18 1016.07 1015.97 1015.87 1015.77 1015.67 1015.56 1015.43 1015.26 1015.05 1014.76 1014.40 1013.95 1013.42 1012.82 1012.16 1011.46 1010.72 1009.97 1009.20 1008.44 1007.67 1006.91 1006.16 1005.43 1004.74 1004.10 1003.52 1003.02 1002.59 1002.24 1001.95 1001.72 1001.51
1016.27 1016.16 1016.06 1015.96 1015.86 1015.75 1015.63 1015.51 1015.40 1015.27 1015.15 1015.01 1014.83 1014.62 1014.35 1014.02 1013.61 1013.13 1012.57 1011.96 1011.29 1010.58 1009.84 1009.06 1008.27 1007.47 1006.65 1005.84 1005.05 1004.30 1003.61 1002.98 1002.43 1001.97 1001.58 1001.26 1000.98 1000.73
1015.92 1015.82 1015.73 1015.63 1015.52 1015.40 1015.27 1015.13 1014.98 1014.83 1014.67 1014.50 1014.30 1014.07 1013.80 1013.47 1013.08 1012.63 1012.11 1011.54 1010.91 1010.23 1009.51 1008.75 1007.96 1007.14 1006.30 1005.46 1004.64 1003.85 1003.12 1002.46 1001.88 1001.39 1000.97 1000.61 1000.29 1000.00
1015.63 1015.53 1015.43 1015.32 1015.20 1015.07 1014.92 1014.75 1014.57 1014.38 1014.18 1013.97 1013.74 1013.48 1013.18 1012.84 1012.45 1012.00 1011.50 1010.96 1010.36 1009.71 1009.02 1008.28 1007.50 1006.69 1005.86 1005.02 1004.18 1003.39 1002.64 1001.96 1001.36 1000.85 1000.40 1000.01 999.66 999.32
1015.44 1015.32 1015.20 1015.08 1014.95 1014.80 1014.63 1014.43 1014.23 1014.00 1013.76 1013.50 1013.22 1012.92 1012.58 1012.21 1011.80 1011.35 1010.85 1010.31 1009.73 1009.10 1008.43 1007.72 1006.96 1006.17 1005.35 1004.52 1003.70 1002.91 1002.16 1001.48 1000.87 1000.34 999.87 999.46 999.07 998.70
1015.33 1015.20 1015.07 1014.94 1014.78 1014.61 1014.42 1014.21 1013.97 1013.72 1013.44 1013.14 1012.82 1012.48 1012.10 1011.69 1011.24 1010.76 1010.25 1009.70 1009.12 1008.50 1007.84 1007.14 1006.41 1005.64 1004.84 1004.03 1003.22 1002.44 1001.70 1001.02 1000.41 999.86 999.38 998.94 998.52 998.12
1015.31 1015.17 1015.02 1014.87 1014.70 1014.52 1014.31 1014.08 1013.83 1013.55 1013.26 1012.94 1012.59 1012.21 1011.79 1011.35 1010.86 1010.35 1009.81 1009.24 1008.64 1008.00 1007.34 1006.65 1005.92 1005.15 1004.37 1003.57 1002.77 1002.00 1001.26 1000.58 999.96 999.40 998.90 998.44 998.00 997.58
1015.35 1015.20 1015.04 1014.88 1014.70 1014.50 1014.28 1014.05 1013.80 1013.52 1013.22 1012.90 1012.54 1012.14 1011.70 1011.23 1010.71 1010.16 1009.58 1008.97 1008.34 1007.68 1007.00 1006.28 1005.54 1004.77 1003.98 1003.17 1002.37 1001.59 1000.85 1000.16 999.52 998.95 998.42 997.95 997.49 997.05
1015.43 1015.28 1015.12 1014.94 1014.75 1014.55 1014.34 1014.11 1013.87 1013.62 1013.33 1013.02 1012.67 1012.27 1011.83 1011.33 1010.79 1010.21 1009.59 1008.94 1008.27 1007.56 1006.84 1006.09 1005.31 1004.51 1003.69 1002.86 1002.04 1001.23 1000.46 999.74 999.08 998.48 997.94 997.44 996.97 996.52
1015.55 1015.40 1015.24 1015.07 1014.88 1014.68 1014.48 1014.27 1014.06 1013.83 1013.58 1013.29 1012.97 1012.58 1012.14 1011.64 1011.08 1010.47 1009.81 1009.11 1008.38 1007.63 1006.85 1006.04 1005.21 1004.37 1003.50 1002.62 1001.76 1000.91 1000.10 999.34 998.63 998.00 997.42 996.90 996.42 995.96
1015.72 1015.59 1015.43 1015.26 1015.08 1014.89 1014.71 1014.52 1014.34 1014.15 1013.94 1013.69 1013.39 1013.03 1012.60 1012.09 1011.52 1010.87 1010.18 1009.43 1008.64 1007.83 1006.98 1006.12 1005.23 1004.32 1003.39 1002.46 1001.53 1000.63 999.76 998.94 998.19 997.50 996.89 996.33 995.84 995.38
1015.98 1015.86 1015.71 1015.55 1015.37 1015.20 1015.03 1014.87 1014.72 1014.56 1014.39 1014.17 1013.90 1013.56 1013.13 1012.62 1012.02 1011.35 1010.61 1009.81 1008.97 1008.09 1007.19 1006.26 1005.31 1004.34 1003.36 1002.36 1001.37 1000.40 999.46 998.58 997.76 997.01 996.35 995.76 995.24 994.78
1016.34 1016.23 1016.09 1015.93 1015.76 1015.59 1015.44 1015.31 1015.18 1015.05 1014.90 1014.71 1014.45 1014.11 1013.68 1013.15 1012.53 1011.82 1011.03 1010.19 1009.30 1008.37 1007.42 1006.44 1005.44 1004.42 1003.39 1002.34 1001.28 1000.25 999.24 998.28 997.39 996.58 995.85 995.22 994.67 994.20
1016.79 1016.68 1016.53 1016.37 1016.21 1016.05 1015.91 1015.79 1015.67 1015.56 1015.41 1015.22 1014.97 1014.61 1014.17 1013.61 1012.96 1012.21 1011.39 1010.51 1009.58 1008.62 1007.64 1006.64 1005.61 1004.56 1003.49 1002.40 1001.30 1000.21 999.14 998.11 997.14 996.25 995.46 994.77 994.17 993.68
1017.26 1017.14 1017.00 1016.83 1016.67 1016.51 1016.37 1016.25 1016.14 1016.02 1015.87 1015.67 1015.39 1015.01 1014.53 1013.95 1013.26 1012.48 1011.63 1010.73 1009.79 1008.82 1007.84 1006.83 1005.81 1004.76 1003.69 1002.59 1001.46 1000.32 999.20 998.10 997.05 996.09 995.21 994.45 993.81 993.27
Thickness
5738 5736 5733 5731 5730 5728 5725 5722 5717 5714 5715 5718 5719 5720 5719 5719 5719 5718 5717 5717 5717 5716 5716 5715 5714 5713 5712 5711 5710 5709 5709 5708 5707 5707 5706 5705 5703 5702
5735 5732 5729 5728 5726 5724 5721 5719 5716 5713 5710 5713 5713 5714 5713 5714 5713 5712 5712 5712 5712 5711 5710 5710 5709 5708 5707 5706 5705 5704 5703 5702 5702 5701 5701 5700 5699 5698
5731 5728 5725 5724 5721 5720 5718 5715 5712 5709 5706 5707 5707 5708 5707 5706 5706 5706 5706 5706 5706 5706 5705 5704 5704 5703 5702 5702 5700 5699 5698 5697 5696 5696 5696 5695 5695 5695
5726 5723 5721 5719 5716 5714 5712 5710 5708 5705 5702 5700 5701 5700 5700 5700 5700 5700 5700 5700 5699 5699 5699 5699 5698 5698 5697 5696 5694 5694 5693 5692 5691 5691 5691 5691 5691 5691
5722 5719 5716 5714 5710 5708 5706 5705 5703 5701 5698 5696 5695 5694 5693 5693 5693 5693 5693 5692 5693 5693 5693 5693 5692 5691 5690 5689 5688 5688 5687 5686 5686 5686 5686 5686 5686 5685
5718 5715 5712 5709 5706 5704 5702 5699 5697 5694 5693 5691 5689 5688 5687 5687 5685 5684 5685 5684 5684 5686 5686 5685 5685 5684 5683 5683 5682 5681 5681 5681 5680 5680 5680 5680 5680 5680
5712 5710 5707 5705 5703 5699 5697 5694 5691 5688 5686 5684 5683 5681 5680 5679 5678 5677 5677 5677 5677 5677 5677 5677 5677 5676 5676 5675 5675 5674 5674 5674 5675 5675 5675 5675 5675 5675
5706 5704 5702 5700 5698 5695 5692 5689 5687 5683 5680 5678 5676 5675 5674 5672 5671 5670 5669 5668 5668 5670 5668 5669 5669 5668 5669 5669 5668 5668 5668 5668 5668 5669 5669 5669 5669 5669
5700 5697 5696 5695 5692 5689 5686 5684 5681 5679 5677 5674 5671 5670 5668 5667 5665 5663 5662 5661 5660 5661 5659 5660 5661 5660 5661 5662 5662 5661 5661 5662 5662 5662 5663 5663 5663 5662
5694 5692 5689 5686 5685 5682 5679 5676 5674 5673 5671 5669 5667 5666 5664 5662 5659 5657 5655 5653 5653 5653 5651 5651 5653 5653 5654 5655 5655 5655 5654 5654 5655 5655 5655 5656 5656 5655
5688 5685 5682 5679 5678 5675 5671 5668 5666 5665 5665 5663 5661 5660 5658 5656 5653 5650 5647 5645 5645 5646 5644 5643 5645 5644 5646 5647 5648 5647 5647 5647 5647 5647 5647 5648 5648 5647
5680 5678 5676 5673 5670 5666 5663 5660 5658 5658 5656 5655 5653 5652 5651 5649 5647 5644 5642 5639 5637 5637 5638 5635 5636 5635 5636 5639 5639 5639 5638 5638 5638 5639 5639 5639 5639 5638
5673 5671 5669 5666 5662 5659 5656 5653 5652 5650 5648 5646 5645 5644 5643 5642 5640 5638 5636 5633 5631 5630 5631 5628 5628 5627 5626 5628 5630 5630 5629 5630 5630 5630 5630 5631 5630 5630
5666 5664 5661 5657 5654 5652 5649 5647 5644 5641 5639 5638 5637 5635 5634 5634 5633 5632 5629 5627 5626 5625 5625 5622 5621 5620 5618 5619 5620 5622 5621 5621 5622 5622 5622 5622 5622 5622
5658 5655 5652 5649 5647 5645 5643 5640 5637 5634 5631 5629 5629 5628 5627 5626 5625 5624 5623 5621 5620 5619 5618 5616 5615 5613 5612 5612 5613 5613 5613 5613 5613 5613 5613 5614 5614 5614
5649 5646 5643 5641 5638 5636 5634 5632 5629 5626 5623 5622 5620 5619 5617 5617 5616 5615 5614 5613 5612 5612 5611 5610 5608 5607 5606 5606 5605 5605 5605 5604 5605 5604 5604 5605 5606 5607
5639 5636 5635 5632 5630 5628 5625 5623 5620 5618 5615 5613 5611 5609 5609 5608 5607 5606 5605 5604 5603 5604 5604 5603 5601 5600 5599 5599 5598 5598 5597 5597 5597 5596 5596 5597 5599 5600
5630 5628 5626 5623 5620 5618 5616 5614 5611 5608 5606 5604 5602 5601 5600 5599 5598 5597 5595 5595 5595 5595 5595 5594 5593 5592 5592 5592 5591 5591 5591 5590 5590 5589 5589 5590 5592 5594
5622 5620 5617 5614 5612 5610 5607 5605 5602 5600 5597 5595 5594 5593 5591 5590 5589 5589 5588 5587 5587 5587 5587 5586 5585 5584 5584 5585 5586 5584 5583 5583 5582 5582 5582 5583 5585 5588
5613 5611 5608 5606 5604 5601 5599 5597 5594 5592 5589 5587 5585 5584 5583 5582 5582 5581 5580 5579 5579 5579 5579 5579 5578 5578 5577 5577 5577 5577 5576 5576 5576 5576 5576 5576 5578 5580
5605 5602 5600 5598 5596 5593 5591 5588 5586 5584 5582 5579 5578 5576 5576 5575 5574 5574 5573 5570 5570 5571 5572 5573 5572 5571 5570 5569 5569 5571 5571 5570 5569 5569 5570 5570 5572 5574
5596 5594 5592 5590 5588 5585 5583 5581 5579 5577 5575 5573 5571 5569 5568 5567 5567 5567 5566 5565 5564 5565 5565 5565 5565 5564 5564 5564 5564 5564 5565 5564 5564 5563 5564 5565 5565 5568
5587 5585 5583 5581 5579 5577 5575 5573 5572 5570 5568 5566 5564 5562 5561 5560 5560 5560 5559 5559 5558 5558 5558 5558 5558 5558 5558 5558 5557 5557 5557 5558 5559 5558 5559 5558 5560 5561